[[{"header":{"parameterUnit":"m.s-1","parameterCategory":1,"la1":30.2991,"la2":30.254,"lo1":-89.0895,"lo2":-89.0444,"dy":0.0017,"dx":0.0017,"nx":28,"ny":28,"refTime":"2024-08-01T03:00:00:Z","depth":0,"parameterNumber":2,"parameterNumberName":"U-component_of_WINDS"},"data":[0,0,0,0,0,0,0,0,0,0,0,0,0,0,0,0,0,0,0,0,0,0,0,0,0,0,0,0,0,0,0,0,0,0,0,0,0,0,0,0,0,0,0,0,0,0,0,0,0,0,0,0,0,0,0,0,0,0,4.1393,4.1394,0,4.1531,4.1532,4.1534,4.1474,4.1471,4.1467,4.1464,4.1609,4.1616,4.1622,0,0,0,0,0,0,0,0,0,0,0,0,0,4.108,4.1087,4.1393,4.1394,4.1396,4.1531,4.1532,4.1534,4.1475,4.147,4.1466,4.1462,4.1606,4.1615,4.1623,0,0,0,0,0,0,0,0,0,0,0,0,0,4.1217,4.1089,4.1392,4.1382,4.1383,4.153,4.1532,4.1535,4.1475,4.147,4.1465,4.1461,4.1604,4.1614,4.1624,4.179,0,0,4.1656,4.1661,0,0,0,0,0,0,0,0,4.1209,4.1229,4.1382,4.1383,4.1384,4.148,4.1475,4.1621,4.1477,4.144,4.1464,4.1458,4.157,4.1583,4.162,4.1797,4.1803,4.1657,4.1664,4.1668,4.1671,0,0,0,0,0,0,0,4.12,4.1222,4.1447,4.1385,4.1386,4.1372,4.1386,4.1503,4.1532,4.1443,4.1439,4.1456,4.157,4.161,4.1623,4.1806,4.1657,4.1666,4.1673,4.1677,4.2126,4.2131,0,0,0,0,0,0,4.119,4.1215,4.1443,4.1452,4.1282,4.1382,4.1397,4.1454,4.1531,4.1537,4.146,4.1453,4.1595,4.1611,4.1628,4.1828,4.1668,4.1678,4.1684,4.212,4.2127,4.2133,0,0,0,0,0,0,4.1184,4.1211,4.1437,4.1332,4.136,4.1393,4.1457,4.146,4.15,4.1544,4.1549,4.1496,4.1591,4.1613,4.175,4.1832,4.1683,4.1692,4.2114,4.2122,4.213,4.2228,0,0,0,0,0,0,4.1175,4.1209,4.1272,4.1334,4.1366,4.1557,4.1462,4.1466,4.1518,4.1509,4.1578,4.1585,4.1589,4.1735,4.1761,4.1843,4.17,4.2106,4.2117,4.2127,4.2218,4.2239,4.2257,0,0,0,0,0,4.1164,4.1295,4.1275,4.1303,4.1445,4.1562,4.158,4.1581,4.1525,4.1589,4.1616,4.1583,4.1819,4.1749,4.1778,4.1865,4.2101,4.2114,4.2127,4.2209,4.2234,4.2256,0,0,0,0,0,0,4.1243,4.1303,4.1282,4.1436,4.1494,4.1551,4.1632,4.1608,4.1684,4.1673,4.1672,4.1688,4.183,4.1861,4.1783,4.203,4.1951,4.197,4.2004,4.2029,4.2048,4.2038,4.1709,0,0,0,0,0,4.1278,4.1367,4.1415,4.1546,4.1576,4.1599,4.165,4.1646,4.1706,4.1731,4.1768,4.1829,4.1917,4.1975,4.2058,4.2222,4.2236,4.2296,4.2315,4.2331,4.2348,4.2437,4.2464,4.2175,4.2175,4.2174,0,0,4.1352,4.1395,4.1452,4.1563,4.1607,4.17,4.162,4.1722,4.1791,4.1746,4.1877,4.1908,4.1975,4.2127,4.2195,4.2157,4.2431,4.2347,4.236,4.2368,4.2453,4.248,4.2504,4.2183,4.2182,4.218,0,0,4.1534,4.1576,4.169,4.1735,4.1803,4.1817,4.1845,4.1906,4.1923,4.2055,4.2023,4.2106,4.2257,4.2306,4.2351,4.2552,4.2524,4.2579,4.2681,4.2768,4.2791,4.2811,4.2883,4.2909,4.2595,4.2595,4.2596,0,4.1617,4.1755,4.1752,4.1856,4.1906,4.1869,4.1985,4.203,4.2122,4.2157,4.2113,4.2302,4.2345,4.2507,4.2556,4.2593,4.2625,4.2571,4.2788,4.2808,4.2827,4.2895,4.2922,4.2602,4.2601,4.26,4.26,0,4.1854,4.195,4.2035,4.2123,4.2183,4.2292,4.2307,4.2368,4.2358,4.2378,4.2512,4.2562,4.2655,4.2693,4.2685,4.2854,4.2829,4.2786,4.2708,4.2861,4.2925,4.2951,4.2611,4.2608,4.2607,4.2605,0,0,4.209,4.2175,4.2206,4.2245,4.2317,4.2392,4.25,4.2589,4.2641,4.2706,4.2797,4.2926,4.2887,4.2938,4.2935,4.3012,4.3167,4.296,4.2962,4.2997,4.3357,4.3388,4.3419,4.3149,4.3154,4.3158,4.3351,0,4.2278,4.2466,4.2466,4.264,4.2729,4.2695,4.2789,4.2844,4.2865,4.2944,4.2967,4.3058,4.3,4.3031,4.3104,4.3133,4.324,4.3119,4.3235,4.3239,4.3219,4.3452,4.3486,4.3666,4.3376,4.3381,4.3384,0,4.2521,4.2592,4.2775,4.2833,4.2871,4.2956,4.3037,4.3113,4.3175,4.3184,4.3241,4.3227,4.3338,4.3256,4.3409,4.3327,4.3374,4.3395,4.3402,4.3413,4.3321,4.347,4.3723,4.375,4.3423,4.342,4.3417,0,4.2675,4.2817,4.2944,4.2979,4.305,4.3111,4.3144,4.32,4.3253,4.3325,4.336,4.3444,4.3491,4.3557,4.3566,4.3505,4.372,4.3639,4.3732,4.3732,4.3779,4.3776,4.4044,4.381,4.381,4.3809,4.3808,0,4.2885,4.2998,4.3014,4.3093,4.3219,4.3218,4.3343,4.3371,4.3422,4.3505,4.3481,4.3561,4.3568,4.365,4.3658,4.3784,4.3805,4.3817,4.3818,4.3819,4.3818,4.385,4.3838,4.3816,4.3815,4.3813,4.3812,0,4.3078,4.3093,4.323,4.3286,4.3303,4.3393,4.3441,4.3517,4.3535,4.3641,4.3666,4.3695,4.3791,4.3806,4.3919,4.3924,4.4075,4.4063,4.4054,4.4052,4.4145,4.4136,4.4443,4.4484,4.4223,4.4226,4.4228,0,4.321,4.3297,4.3361,4.3415,4.345,4.3538,4.3592,4.3595,4.3652,4.3729,4.3795,4.3888,4.3962,4.4116,4.4148,4.4234,4.4224,4.4326,4.4237,4.4235,4.4225,4.422,4.4229,4.4343,4.4346,4.4348,4.435,0,4.3444,4.3447,4.3526,4.3607,4.3672,4.3737,4.3798,4.3843,4.3854,4.3921,4.4017,4.4075,4.4189,4.4281,4.4366,4.4401,4.4378,4.4377,4.4404,4.4406,4.4397,4.4403,4.41,4.4371,4.4368,4.4367,4.4366,4.4365,4.3612,4.3686,4.3743,4.3831,4.3877,4.3934,4.4008,4.4035,4.4115,4.4207,4.4204,4.431,4.437,4.4481,4.4522,4.4605,4.4573,4.4611,4.462,4.463,4.4639,4.4384,4.4621,4.462,4.462,4.4619,4.4619,0,4.3844,4.3879,4.396,4.4045,4.4114,4.4085,4.4151,4.4211,4.4305,4.4361,4.4434,4.4545,4.4635,4.4673,4.4761,4.4821,4.4813,4.4844,4.484,4.4848,4.4663,4.4631,4.4849,4.4849,4.4849,4.4849,4.4849,4.4849,4.3973,4.4098,4.4108,4.4255,4.4289,4.4392,4.4432,4.4485,4.453,4.4655,4.4729,4.4753,4.4802,4.4894,4.4975,4.4984,4.5017,4.5054,4.5058,4.4884,4.4861,4.4839,4.4809,4.5061,4.5061,4.5236,4.5238,4.5239]},{"header":{"parameterUnit":"m.s-1","parameterCategory":1,"la1":30.2991,"la2":30.254,"lo1":-89.0895,"lo2":-89.0444,"dy":0.0017,"dx":0.0017,"nx":28,"ny":28,"refTime":"2024-08-01T03:00:00:Z","depth":0,"parameterNumber":3,"parameterNumberName":"V-component_of_WINDS"},"data":[0,0,0,0,0,0,0,0,0,0,0,0,0,0,0,0,0,0,0,0,0,0,0,0,0,0,0,0,0,0,0,0,0,0,0,0,0,0,0,0,0,0,0,0,0,0,0,0,0,0,0,0,0,0,0,0,0,0,-0.5819,-0.5819,0,-0.5816,-0.5816,-0.5816,-0.581,-0.581,-0.5809,-0.5809,-0.5806,-0.5806,-0.5806,0,0,0,0,0,0,0,0,0,0,0,0,0,-0.582,-0.582,-0.5819,-0.5819,-0.5819,-0.5816,-0.5816,-0.5816,-0.581,-0.581,-0.5809,-0.5809,-0.5806,-0.5806,-0.5806,0,0,0,0,0,0,0,0,0,0,0,0,0,-0.5818,-0.582,-0.5819,-0.5815,-0.5815,-0.5816,-0.5816,-0.5816,-0.581,-0.581,-0.5809,-0.5809,-0.5806,-0.5806,-0.5806,-0.581,0,0,-0.5806,-0.5806,0,0,0,0,0,0,0,0,-0.5818,-0.5818,-0.5816,-0.5816,-0.5815,-0.5813,-0.5815,-0.5814,-0.581,-0.5812,-0.5809,-0.5809,-0.5808,-0.5808,-0.5808,-0.581,-0.5809,-0.5806,-0.5806,-0.5806,-0.5806,0,0,0,0,0,0,0,-0.5818,-0.5818,-0.5818,-0.5816,-0.5816,-0.5814,-0.5814,-0.5815,-0.5811,-0.5812,-0.5811,-0.5811,-0.5808,-0.5808,-0.5808,-0.5809,-0.5806,-0.5806,-0.5806,-0.5806,-0.5815,-0.5815,0,0,0,0,0,0,-0.5819,-0.5818,-0.5818,-0.5818,-0.5816,-0.5814,-0.5814,-0.5814,-0.5811,-0.581,-0.5811,-0.5811,-0.5808,-0.5808,-0.5808,-0.5812,-0.5806,-0.5806,-0.5806,-0.5814,-0.5815,-0.5815,0,0,0,0,0,0,-0.5819,-0.5819,-0.5818,-0.5818,-0.5818,-0.5814,-0.5815,-0.5814,-0.5814,-0.5811,-0.581,-0.5811,-0.5808,-0.5808,-0.5809,-0.5812,-0.5806,-0.5806,-0.5814,-0.5815,-0.5815,-0.5821,0,0,0,0,0,0,-0.5819,-0.5819,-0.582,-0.5818,-0.5818,-0.582,-0.5815,-0.5814,-0.5814,-0.5813,-0.5811,-0.581,-0.5808,-0.5809,-0.5809,-0.5812,-0.5806,-0.5814,-0.5814,-0.5815,-0.5821,-0.5822,-0.5823,0,0,0,0,0,-0.5819,-0.5822,-0.5821,-0.5821,-0.5819,-0.582,-0.582,-0.5817,-0.5814,-0.5816,-0.5814,-0.581,-0.5812,-0.581,-0.581,-0.5812,-0.5814,-0.5814,-0.5815,-0.582,-0.5822,-0.5823,0,0,0,0,0,0,-0.5825,-0.5822,-0.582,-0.5822,-0.5821,-0.5819,-0.582,-0.5818,-0.5818,-0.5817,-0.5813,-0.5813,-0.5815,-0.5814,-0.5811,-0.5816,-0.5812,-0.5813,-0.5817,-0.5818,-0.5819,-0.5819,-0.5806,0,0,0,0,0,-0.5826,-0.5827,-0.5824,-0.5827,-0.5826,-0.5824,-0.5824,-0.5821,-0.582,-0.582,-0.5818,-0.5817,-0.5817,-0.5818,-0.5818,-0.5821,-0.582,-0.5823,-0.5824,-0.5824,-0.5825,-0.5827,-0.5828,-0.5816,-0.5816,-0.5816,0,0,-0.5829,-0.5828,-0.5828,-0.5828,-0.5827,-0.5828,-0.5823,-0.5824,-0.5825,-0.582,-0.5822,-0.582,-0.5819,-0.5822,-0.5823,-0.5821,-0.5828,-0.5825,-0.5826,-0.5825,-0.5827,-0.5828,-0.5829,-0.5817,-0.5817,-0.5817,0,0,-0.5835,-0.5834,-0.5836,-0.5835,-0.5834,-0.5832,-0.5833,-0.5831,-0.583,-0.5832,-0.5828,-0.5829,-0.583,-0.5829,-0.5829,-0.5835,-0.5832,-0.5836,-0.584,-0.5842,-0.5843,-0.5843,-0.5846,-0.5847,-0.5836,-0.5836,-0.5836,0,-0.5839,-0.584,-0.5837,-0.5839,-0.5839,-0.5835,-0.5837,-0.5836,-0.5835,-0.5835,-0.5833,-0.5834,-0.5833,-0.5836,-0.5837,-0.5837,-0.5838,-0.5835,-0.5843,-0.5844,-0.5844,-0.5846,-0.5847,-0.5836,-0.5836,-0.5836,-0.5836,0,-0.5845,-0.5846,-0.5848,-0.5847,-0.5847,-0.5849,-0.5846,-0.5847,-0.5845,-0.5844,-0.5846,-0.5844,-0.5844,-0.5845,-0.5843,-0.5847,-0.5846,-0.5844,-0.584,-0.5846,-0.5848,-0.5849,-0.5837,-0.5837,-0.5837,-0.5837,0,0,-0.5853,-0.5852,-0.5852,-0.5852,-0.5851,-0.5852,-0.5853,-0.5854,-0.5854,-0.5854,-0.5855,-0.5856,-0.5854,-0.5854,-0.5852,-0.5854,-0.5859,-0.5851,-0.5851,-0.5852,-0.5864,-0.5866,-0.5867,-0.5858,-0.5858,-0.5858,-0.5864,0,-0.5859,-0.5861,-0.5859,-0.5863,-0.5864,-0.586,-0.5862,-0.5862,-0.5861,-0.5861,-0.586,-0.5861,-0.5858,-0.5858,-0.5859,-0.5858,-0.5861,-0.5858,-0.5859,-0.5859,-0.5859,-0.5868,-0.5869,-0.5875,-0.5865,-0.5865,-0.5865,0,-0.5865,-0.5865,-0.5869,-0.5868,-0.5868,-0.587,-0.587,-0.5871,-0.587,-0.5869,-0.587,-0.5867,-0.5869,-0.5866,-0.5869,-0.5866,-0.5867,-0.5866,-0.5866,-0.5866,-0.5862,-0.5867,-0.5877,-0.5878,-0.5866,-0.5866,-0.5866,0,-0.5871,-0.5872,-0.5874,-0.5874,-0.5873,-0.5874,-0.5874,-0.5874,-0.5874,-0.5874,-0.5875,-0.5875,-0.5875,-0.5876,-0.5874,-0.5872,-0.5877,-0.5873,-0.5876,-0.5876,-0.5877,-0.5877,-0.5887,-0.5878,-0.5878,-0.5878,-0.5878,0,-0.5877,-0.5879,-0.5877,-0.5878,-0.5881,-0.5879,-0.5881,-0.588,-0.588,-0.5881,-0.5879,-0.588,-0.5878,-0.5879,-0.5878,-0.588,-0.588,-0.588,-0.5879,-0.588,-0.588,-0.5879,-0.5879,-0.5878,-0.5878,-0.5878,-0.5878,0,-0.5883,-0.5882,-0.5884,-0.5883,-0.5883,-0.5885,-0.5884,-0.5886,-0.5885,-0.5887,-0.5887,-0.5885,-0.5887,-0.5885,-0.5886,-0.5885,-0.5889,-0.5888,-0.5889,-0.5888,-0.5891,-0.5891,-0.5901,-0.5902,-0.5893,-0.5893,-0.5893,0,-0.5887,-0.5889,-0.5888,-0.5889,-0.5889,-0.589,-0.5891,-0.5889,-0.589,-0.589,-0.5891,-0.5892,-0.5893,-0.5895,-0.5894,-0.5895,-0.5894,-0.5898,-0.5894,-0.5895,-0.5894,-0.5894,-0.5894,-0.5898,-0.5898,-0.5898,-0.5898,0,-0.5894,-0.5893,-0.5894,-0.5895,-0.5896,-0.5896,-0.5897,-0.5897,-0.5896,-0.5897,-0.5898,-0.5899,-0.59,-0.5901,-0.5902,-0.5902,-0.59,-0.59,-0.59,-0.5901,-0.5901,-0.5901,-0.589,-0.5899,-0.5899,-0.5899,-0.5899,-0.5899,-0.5899,-0.5901,-0.5901,-0.5902,-0.5902,-0.5902,-0.5904,-0.5903,-0.5904,-0.5905,-0.5904,-0.5906,-0.5906,-0.5907,-0.5907,-0.5909,-0.5907,-0.5908,-0.5908,-0.5909,-0.5909,-0.5901,-0.5909,-0.5909,-0.5909,-0.5909,-0.5909,0,-0.5906,-0.5906,-0.5907,-0.5908,-0.5909,-0.5907,-0.5908,-0.5908,-0.591,-0.591,-0.5911,-0.5913,-0.5915,-0.5914,-0.5915,-0.5917,-0.5916,-0.5917,-0.5917,-0.5917,-0.591,-0.591,-0.5918,-0.5918,-0.5918,-0.5918,-0.5918,-0.5918,-0.5909,-0.5912,-0.5911,-0.5914,-0.5914,-0.5915,-0.5916,-0.5917,-0.5917,-0.5919,-0.592,-0.592,-0.592,-0.5921,-0.5923,-0.5923,-0.5923,-0.5925,-0.5924,-0.5918,-0.5917,-0.5916,-0.5915,-0.5925,-0.5925,-0.593,-0.593,-0.593]}]]